Location: Makanda
(37.6176°N, 89.2090°W)
Time: 12:41:01
(UTC+00:00)

Cosmos 2227 Rocket - Pass Details

Date: 23 September 2019
Orbit: 837 x 847 km, 71.0° (Epoch: 15 October)

Event Time Altitude Azimuth Distance (km) Brightness Sun altitude
Rises 00:46:27 0° 190° (S) 3,377 5.4 -11.2°
Reaches altitude 10° 00:48:54 10° 187° (S) 2,447 4.6 -11.6°
Maximum altitude 00:54:25 62° 108° (ESE) 947 2.2 -12.7°
Drops below altitude 10° 01:00:00 10° 29° (NNE) 2,469 4.4 -13.8°
Sets 01:02:28 0° 26° (NNE) 3,409 5.2 -14.3°
